Regional Weather Roundup
Issued by NWS

Home | Current Version | Previous Version | Graphics & Text | Print | Product List | Glossary On
Versions: 1 2 3 4 5 6 7 8 9 10 11 12 13 14 15 16 17 18 19 20 21 22 23 24 25 26 27 28 29 30 31 32 33 34 35 36 37 38 39 40 41 42 43 44 45 46 47 48 49 50
682
ASUS44 KLIX 311907
RWRLA
LOUISIANA WEATHER ROUNDUP
NATIONAL WEATHER SERVICE NEW ORLEANS LA
200 PM CDT TUE MAR 31 2015

NOTE: "FAIR" INDICATES FEW OR NO CLOUDS BELOW 12,000 FEET WITH NO
      SIGNIFICANT WEATHER AND/OR OBSTRUCTIONS TO VISIBILITY.
      SKY/WX - SKY CONDITION AND SIGNIFICANT WEATHER.
      TMP - AIR TEMPERATURE.    DP   - DEWPOINT TEMPERATURE.
      RH  - RELATIVE HUMIDITY.  PRES - PRESSURE.
      HX  - HEAT INDEX.         WCI  - WIND CHILL INDEX.

*  THESE STATIONS ARE NOT NWS OR FAA STATIONS AND ARE NOT UNDER
   NWS QUALITY CONTROL.

LAZ040-048-061>063-065-066-069-312000-
SOUTHEAST LOUISIANA

CITY           SKY/WX    TMP DP  RH WIND       PRES   REMARKS
N.O. AUDUBON   NOT AVBL
N.O. INTL ARPT PTSUNNY   80  62  54 W15       30.09F
N.O. LAKEFRONT PTSUNNY   79  63  57 W12       30.09F
SLIDELL        MOSUNNY   80  62  54 SW12G22   30.08F
BATON ROUGE    MOSUNNY   81  61  50 SW14      30.08F
BOOTHVILLE     MOSUNNY   78  66  66 W9        30.13F
BELLE CHASSE   PTSUNNY   79  61  53 SW14      30.09F
BOGALUSA*        N/A     81  58  45 W8        30.09F
GALLIANO*      PTCLDY    81  64  55 SW23      30.12F
NEW ROADS*     NOT AVBL
GONZALES*      MOCLDY    80  60  51 SW13G24   30.09F
HAMMOND*       PTSUNNY   81  55  41 W10       30.10F
HOUMA*         PTSUNNY   79  64  61 SW15      30.11F
PORT FOURCHON* MOCLDY    79  64  61 SW10      30.15F

$$

LAZ041-044-053-054-312000-
SOUTHWEST LOUISIANA

CITY           SKY/WX    TMP DP  RH WIND       PRES   REMARKS
LAKE CHARLES   MOSUNNY   79  61  53 S15G21    30.08F
LAFAYETTE      LGT RAIN  80  60  50 SW18G24   30.09F
PATTERSON      PTSUNNY   79  63  57 SW17G23   30.12F
SALT POINT       N/A     75  68  78 VRB5      30.10F
NEW IBERIA     PTSUNNY   79  61  53 W13       30.10F
CHENAULT AIRPK PTSUNNY   81  59  47 SW14G21   30.08F

$$

LAZ027-028-312000-
CENTRAL LOUISIANA

CITY           SKY/WX    TMP DP  RH WIND       PRES   REMARKS
FORT POLK      PTSUNNY   77  60  56 SW9       30.04F
ALEXANDRIA INT MOSUNNY   79  59  50 SW12G22   30.03F
ALEXANDRIA     MOSUNNY   79  58  48 SW15G22   30.05F

$$

LAZ001-002-312000-
NORTHWEST LOUISIANA

CITY           SKY/WX    TMP DP  RH WIND       PRES   REMARKS
SHREVEPORT     CLOUDY    74  62  66 SW12      30.02F
BARKSDALE AFB  CLOUDY    74  62  65 SW8       30.02F
DTN SHREVEPORT CLOUDY    72  61  68 SW12      30.02F

$$

LAZ014-016-312000-
NORTHEAST LOUISIANA

CITY           SKY/WX    TMP DP  RH WIND       PRES   REMARKS
MONROE         PTSUNNY   79  60  52 SW12G18   30.02F
TALLULAH       MOSUNNY   76  61  59 S13G21    30.03F

$$




USA.gov is the U.S. government's official web portal to all federal, state and local government web resources and services.